GLO2005 SBEG-SBGL

Flight info

Callsign GLO2005
Flight time N/A
Altitude 37000
Route GIKVI UZ6 MULUV UZ24 MAVGU
Aircraft B738/M-SDFGIKLORWXY/LB1

Departure

Time 2026-04-30 12:54
Airport Eduardo Gomes International Airport (SBEG)

Arrival

Time N/A
Airport Rio Galeão – Tom Jobim International Airport (SBGL)
Time Latitude Longitude Altitude Speed Heading
2026-04-30 12:38 -3.03271 -60.04581 269 ft 0 kts 358°
2026-04-30 12:42 -3.03272 -60.04623 269 ft 0 kts
2026-04-30 12:46 -3.03286 -60.04623 269 ft 4 kts 358°
2026-04-30 12:47 -3.03313 -60.04621 269 ft 4 kts 351°
2026-04-30 12:47 -3.03339 -60.04614 269 ft 4 kts 331°
2026-04-30 12:47 -3.03355 -60.04599 269 ft 3 kts 276°
2026-04-30 12:47 -3.03356 -60.04595 269 ft 1 kts 270°
2026-04-30 12:49 -3.03356 -60.04597 269 ft 1 kts 270°
2026-04-30 12:49 -3.03356 -60.04618 269 ft 5 kts 269°
2026-04-30 12:50 -3.03352 -60.04666 269 ft 9 kts 274°
2026-04-30 12:50 -3.03361 -60.04737 269 ft 12 kts 255°
2026-04-30 12:50 -3.03404 -60.04818 269 ft 15 kts 231°
2026-04-30 12:50 -3.03488 -60.04890 269 ft 17 kts 215°
2026-04-30 12:51 -3.03569 -60.04986 269 ft 19 kts 244°
2026-04-30 12:51 -3.03612 -60.05120 269 ft 21 kts 255°
2026-04-30 12:51 -3.03651 -60.05268 269 ft 23 kts 255°
2026-04-30 12:51 -3.03683 -60.05422 269 ft 22 kts 263°
2026-04-30 12:52 -3.03691 -60.05576 269 ft 22 kts 271°
2026-04-30 12:52 -3.03690 -60.05725 269 ft 21 kts 270°
2026-04-30 12:52 -3.03691 -60.05869 269 ft 20 kts 270°
2026-04-30 12:52 -3.03690 -60.06010 269 ft 20 kts 270°
2026-04-30 12:53 -3.03707 -60.06139 269 ft 17 kts 233°
2026-04-30 12:53 -3.03794 -60.06175 269 ft 13 kts 180°
2026-04-30 12:53 -3.03858 -60.06124 270 ft 13 kts 97°
2026-04-30 12:53 -3.03858 -60.06003 270 ft 38 kts 90°
2026-04-30 12:54 -3.03859 -60.05486 268 ft 109 kts 90°
2026-04-30 12:54 -3.03862 -60.04524 276 ft 165 kts 89°
2026-04-30 12:54 -3.03869 -60.03292 751 ft 181 kts 90°
2026-04-30 12:54 -3.03879 -60.02032 1593 ft 179 kts 91°
2026-04-30 12:55 -3.03928 -60.00813 2385 ft 181 kts 102°
2026-04-30 12:55 -3.04664 -59.99702 2665 ft 210 kts 143°
2026-04-30 12:55 -3.05965 -59.98858 2884 ft 236 kts 147°
2026-04-30 12:55 -3.07424 -59.97941 3180 ft 257 kts 147°
2026-04-30 12:56 -3.08939 -59.96943 3867 ft 263 kts 142°
2026-04-30 12:56 -3.10378 -59.95802 4749 ft 264 kts 139°
2026-04-30 12:56 -3.11789 -59.94615 5554 ft 266 kts 139°
2026-04-30 12:56 -3.13193 -59.93424 6350 ft 269 kts 139°
2026-04-30 12:57 -3.14632 -59.92207 7097 ft 272 kts 139°
2026-04-30 12:57 -3.16083 -59.90985 7840 ft 274 kts 139°
2026-04-30 12:57 -3.17555 -59.89750 8580 ft 277 kts 139°
2026-04-30 12:57 -3.19043 -59.88506 9325 ft 281 kts 138°
2026-04-30 12:58 -3.20552 -59.87248 10048 ft 284 kts 138°
2026-04-30 12:58 -3.22110 -59.85950 10411 ft 301 kts 139°
2026-04-30 12:58 -3.23780 -59.84559 10575 ft 323 kts 139°
2026-04-30 12:58 -3.25555 -59.83083 10852 ft 338 kts 139°
2026-04-30 12:59 -3.27389 -59.81561 11424 ft 343 kts 139°
2026-04-30 12:59 -3.29229 -59.80036 12097 ft 345 kts 139°
2026-04-30 12:59 -3.31064 -59.78516 12747 ft 347 kts 139°
2026-04-30 12:59 -3.32933 -59.76967 13330 ft 351 kts 139°
2026-04-30 13:00 -3.34851 -59.75377 13916 ft 355 kts 139°
2026-04-30 13:00 -3.36732 -59.73818 14450 ft 357 kts 139°
2026-04-30 13:00 -3.38654 -59.72224 15002 ft 360 kts 139°
2026-04-30 13:00 -3.40587 -59.70622 15535 ft 363 kts 139°
2026-04-30 13:01 -3.42538 -59.69004 16076 ft 365 kts 139°
2026-04-30 13:01 -3.44505 -59.67374 16599 ft 368 kts 139°
2026-04-30 13:01 -3.46485 -59.65731 17122 ft 371 kts 139°
2026-04-30 13:01 -3.48481 -59.64076 17631 ft 374 kts 139°
2026-04-30 13:02 -3.50488 -59.62412 18129 ft 377 kts 139°
2026-04-30 13:02 -3.52515 -59.60730 18563 ft 380 kts 139°
2026-04-30 13:02 -3.54540 -59.59051 18975 ft 382 kts 139°
2026-04-30 13:02 -3.56593 -59.57347 19390 ft 385 kts 139°
2026-04-30 13:03 -3.58667 -59.55627 19790 ft 388 kts 139°
2026-04-30 13:03 -3.60760 -59.53891 20206 ft 391 kts 139°
2026-04-30 13:03 -3.62862 -59.52146 20607 ft 393 kts 139°
2026-04-30 13:03 -3.64978 -59.50391 21002 ft 396 kts 139°
2026-04-30 13:04 -3.67109 -59.48623 21393 ft 399 kts 139°
2026-04-30 13:04 -3.69254 -59.46843 21772 ft 401 kts 138°
2026-04-30 13:04 -3.71408 -59.45055 22151 ft 404 kts 138°
2026-04-30 13:04 -3.73580 -59.43253 22528 ft 406 kts 138°
2026-04-30 13:05 -3.75760 -59.41443 22887 ft 409 kts 138°
2026-04-30 13:05 -3.77959 -59.39618 23245 ft 411 kts 138°
2026-04-30 13:05 -3.80142 -59.37806 23572 ft 414 kts 138°
2026-04-30 13:06 -3.84605 -59.34101 24127 ft 419 kts 138°
2026-04-30 13:06 -3.86857 -59.32231 24411 ft 421 kts 138°
2026-04-30 13:06 -3.89121 -59.30351 24681 ft 424 kts 138°
2026-04-30 13:06 -3.91395 -59.28463 24948 ft 426 kts 138°
2026-04-30 13:07 -3.93685 -59.26561 25215 ft 428 kts 138°
2026-04-30 13:07 -3.95986 -59.24650 25482 ft 430 kts 138°
2026-04-30 13:07 -3.98298 -59.22730 25749 ft 432 kts 138°
2026-04-30 13:07 -4.00621 -59.20801 26006 ft 434 kts 138°
2026-04-30 13:08 -4.02950 -59.18866 26263 ft 436 kts 139°
2026-04-30 13:08 -4.05295 -59.16918 26503 ft 439 kts 139°
2026-04-30 13:08 -4.07647 -59.14964 26750 ft 441 kts 139°
2026-04-30 13:08 -4.09983 -59.13023 26995 ft 443 kts 139°
2026-04-30 13:09 -4.12358 -59.11049 27224 ft 445 kts 139°
2026-04-30 13:09 -4.14755 -59.09057 27451 ft 447 kts 139°
2026-04-30 13:09 -4.17151 -59.07066 27684 ft 449 kts 139°
2026-04-30 13:09 -4.19557 -59.05066 27908 ft 451 kts 139°
2026-04-30 13:10 -4.21974 -59.03057 28132 ft 452 kts 139°
2026-04-30 13:10 -4.24405 -59.01036 28350 ft 454 kts 139°
2026-04-30 13:10 -4.26841 -58.99010 28564 ft 456 kts 139°
2026-04-30 13:10 -4.29293 -58.96972 28774 ft 458 kts 139°
2026-04-30 13:11 -4.31748 -58.94931 28979 ft 460 kts 139°
2026-04-30 13:11 -4.34218 -58.92877 29186 ft 461 kts 139°
2026-04-30 13:11 -4.36691 -58.90820 29382 ft 463 kts 139°
2026-04-30 13:11 -4.39172 -58.88756 29581 ft 464 kts 139°
2026-04-30 13:12 -4.41662 -58.86685 29769 ft 466 kts 139°
2026-04-30 13:12 -4.44160 -58.84606 29952 ft 468 kts 139°
2026-04-30 13:12 -4.46673 -58.82515 30124 ft 469 kts 139°
2026-04-30 13:13 -4.51694 -58.78336 30553 ft 469 kts 139°
2026-04-30 13:13 -4.54201 -58.76250 30782 ft 468 kts 139°
2026-04-30 13:13 -4.59117 -58.72028 31218 ft 468 kts 136°
2026-04-30 13:14 -4.61522 -58.69833 31440 ft 468 kts 136°
2026-04-30 13:14 -4.63912 -58.67624 31671 ft 467 kts 136°
2026-04-30 13:14 -4.68694 -58.63215 32139 ft 467 kts 136°
2026-04-30 13:15 -4.71097 -58.61015 32374 ft 467 kts 136°
2026-04-30 13:15 -4.75912 -58.56629 32845 ft 467 kts 136°
2026-04-30 13:15 -4.78319 -58.54441 33096 ft 466 kts 136°
2026-04-30 13:16 -4.80720 -58.52258 33327 ft 466 kts 136°
2026-04-30 13:16 -4.83094 -58.50100 33563 ft 466 kts 136°
2026-04-30 13:16 -4.85493 -58.47919 33809 ft 466 kts 136°
2026-04-30 13:17 -4.90288 -58.43556 34276 ft 464 kts 136°
2026-04-30 13:17 -4.92677 -58.41382 34497 ft 464 kts 136°
2026-04-30 13:17 -4.96679 -58.37739 34859 ft 463 kts 136°
2026-04-30 13:18 -4.99832 -58.34869 35132 ft 462 kts 136°
2026-04-30 13:18 -5.04583 -58.30543 35564 ft 461 kts 136°
2026-04-30 13:18 -5.06954 -58.28384 35759 ft 460 kts 136°
2026-04-30 13:19 -5.09328 -58.26222 35946 ft 460 kts 136°
2026-04-30 13:19 -5.11701 -58.24060 36125 ft 460 kts 136°
2026-04-30 13:19 -5.14067 -58.21904 36317 ft 459 kts 136°
2026-04-30 13:19 -5.16431 -58.19751 36502 ft 459 kts 136°
2026-04-30 13:20 -5.18793 -58.17598 36670 ft 459 kts 136°
2026-04-30 13:20 -5.20363 -58.16167 36781 ft 459 kts 136°
2026-04-30 13:20 -5.22721 -58.14019 36932 ft 457 kts 136°
2026-04-30 13:20 -5.25083 -58.11882 36962 ft 458 kts 137°
2026-04-30 13:21 -5.29846 -58.07600 36982 ft 460 kts 137°
2026-04-30 13:22 -5.37007 -58.01165 36972 ft 461 kts 137°
2026-04-30 13:22 -5.44169 -57.94714 36970 ft 461 kts 137°
2026-04-30 13:23 -5.51292 -57.88296 36976 ft 460 kts 137°
2026-04-30 13:24 -5.60797 -57.79727 36972 ft 457 kts 136°
2026-04-30 13:25 -5.70251 -57.71200 36972 ft 455 kts 136°
2026-04-30 13:26 -5.81966 -57.60628 36971 ft 453 kts 137°
2026-04-30 13:28 -5.93696 -57.50036 36970 ft 454 kts 137°
2026-04-30 13:28 -6.00751 -57.43664 36972 ft 455 kts 137°
2026-04-30 13:29 -6.10195 -57.35129 36974 ft 457 kts 137°
2026-04-30 13:31 -6.21999 -57.24455 36971 ft 458 kts 137°
2026-04-30 13:32 -6.33839 -57.13744 36974 ft 457 kts 136°
2026-04-30 13:33 -6.43094 -57.05364 36974 ft 454 kts 136°
2026-04-30 13:34 -6.50131 -56.98991 36971 ft 453 kts 136°
2026-04-30 13:35 -6.59477 -56.90522 36974 ft 451 kts 137°
2026-04-30 13:36 -6.68772 -56.82095 36974 ft 451 kts 137°
2026-04-30 13:36 -6.75779 -56.75740 36978 ft 452 kts 137°
2026-04-30 13:37 -6.82793 -56.69375 36978 ft 453 kts 137°
2026-04-30 13:38 -6.89820 -56.62996 36973 ft 454 kts 137°
2026-04-30 13:39 -6.99211 -56.54466 36975 ft 455 kts 137°
2026-04-30 13:40 -7.06251 -56.48068 36973 ft 455 kts 137°
2026-04-30 13:40 -7.10914 -56.43829 36974 ft 454 kts 137°
2026-04-30 13:41 -7.15601 -56.39568 36975 ft 453 kts 137°
2026-04-30 13:41 -7.20277 -56.35313 36974 ft 452 kts 136°
2026-04-30 13:42 -7.24937 -56.31072 36976 ft 451 kts 136°
2026-04-30 13:42 -7.31918 -56.24718 36978 ft 450 kts 137°
2026-04-30 13:43 -7.36559 -56.20492 36984 ft 450 kts 136°
2026-04-30 13:43 -7.41194 -56.16267 36974 ft 449 kts 136°
2026-04-30 13:44 -7.45798 -56.12069 36973 ft 449 kts 136°
2026-04-30 13:44 -7.50429 -56.07845 36978 ft 448 kts 136°
2026-04-30 13:45 -7.57364 -56.01517 36980 ft 449 kts 136°
2026-04-30 13:46 -7.61995 -55.97289 36973 ft 449 kts 136°
2026-04-30 13:46 -7.66626 -55.93061 36977 ft 449 kts 136°
2026-04-30 13:47 -7.71267 -55.88822 36982 ft 450 kts 136°
2026-04-30 13:47 -7.75914 -55.84576 36983 ft 451 kts 136°
2026-04-30 13:48 -7.80562 -55.80328 36978 ft 452 kts 136°
2026-04-30 13:48 -7.85190 -55.76099 36978 ft 453 kts 136°
2026-04-30 13:49 -7.89861 -55.71827 36983 ft 453 kts 136°
2026-04-30 13:49 -7.94531 -55.67554 36982 ft 454 kts 136°
2026-04-30 13:50 -7.99211 -55.63271 36979 ft 454 kts 136°
2026-04-30 13:50 -8.06237 -55.56841 36978 ft 455 kts 136°
2026-04-30 13:51 -8.10918 -55.52555 36979 ft 454 kts 136°
2026-04-30 13:51 -8.15600 -55.48266 36978 ft 454 kts 136°
2026-04-30 13:52 -8.20274 -55.43982 36974 ft 454 kts 136°
2026-04-30 13:52 -8.24913 -55.39728 36979 ft 454 kts 136°
2026-04-30 13:53 -8.29586 -55.35444 36984 ft 453 kts 136°
2026-04-30 13:53 -8.34258 -55.31156 36974 ft 453 kts 136°
2026-04-30 13:54 -8.38922 -55.26877 36986 ft 453 kts 136°
2026-04-30 13:54 -8.43472 -55.22701 36976 ft 453 kts 136°
2026-04-30 13:55 -8.48132 -55.18422 36982 ft 453 kts 136°
2026-04-30 13:55 -8.52790 -55.14143 36989 ft 452 kts 136°
2026-04-30 13:56 -8.57423 -55.09885 36980 ft 453 kts 136°
2026-04-30 13:56 -8.62090 -55.05595 36983 ft 453 kts 136°
2026-04-30 13:57 -8.66755 -55.01305 36984 ft 454 kts 136°
2026-04-30 13:57 -8.71421 -54.97013 36975 ft 454 kts 136°
2026-04-30 13:58 -8.78424 -54.90569 36984 ft 453 kts 136°
2026-04-30 13:59 -8.83084 -54.86278 36995 ft 453 kts 136°
2026-04-30 13:59 -8.87719 -54.82010 36998 ft 453 kts 136°
2026-04-30 14:00 -8.92383 -54.77713 36994 ft 453 kts 136°
2026-04-30 14:00 -8.99366 -54.71275 36998 ft 453 kts 136°
2026-04-30 14:01 -9.04023 -54.66982 36992 ft 453 kts 136°
2026-04-30 14:01 -9.08671 -54.62690 36994 ft 452 kts 136°
2026-04-30 14:02 -9.13323 -54.58396 36991 ft 452 kts 136°
2026-04-30 14:02 -9.17970 -54.54096 36988 ft 452 kts 135°
2026-04-30 14:03 -9.22434 -54.49680 36994 ft 451 kts 133°
2026-04-30 14:03 -9.26863 -54.45183 36982 ft 451 kts 133°
2026-04-30 14:04 -9.31310 -54.40696 36999 ft 451 kts 133°
2026-04-30 14:04 -9.35769 -54.36224 36988 ft 451 kts 134°
2026-04-30 14:05 -9.40236 -54.31749 36987 ft 452 kts 134°
2026-04-30 14:05 -9.44708 -54.27270 36991 ft 452 kts 133°
2026-04-30 14:06 -9.51418 -54.20544 36981 ft 453 kts 134°
2026-04-30 14:07 -9.58141 -54.13800 36979 ft 454 kts 134°
2026-04-30 14:08 -9.64849 -54.07068 36979 ft 454 kts 133°
2026-04-30 14:08 -9.71595 -54.00291 36976 ft 455 kts 134°
2026-04-30 14:09 -9.76090 -53.95774 36981 ft 456 kts 133°
2026-04-30 14:10 -9.82085 -53.89746 36979 ft 456 kts 134°
2026-04-30 14:10 -9.86588 -53.85219 36979 ft 456 kts 133°
2026-04-30 14:11 -9.91188 -53.80765 36977 ft 457 kts 135°
2026-04-30 14:11 -9.95854 -53.76443 36983 ft 457 kts 136°
2026-04-30 14:12 -10.00572 -53.72056 36979 ft 457 kts 135°
2026-04-30 14:12 -10.05211 -53.67707 36983 ft 457 kts 135°
2026-04-30 14:13 -10.09868 -53.63326 36966 ft 457 kts 135°
2026-04-30 14:13 -10.14530 -53.58943 36979 ft 456 kts 135°
2026-04-30 14:14 -10.19190 -53.54559 36979 ft 456 kts 135°
2026-04-30 14:14 -10.23850 -53.50174 36979 ft 456 kts 135°
2026-04-30 14:15 -10.28499 -53.45797 36971 ft 456 kts 135°
2026-04-30 14:15 -10.33148 -53.41418 36977 ft 455 kts 135°
2026-04-30 14:16 -10.37766 -53.37065 36976 ft 455 kts 135°
2026-04-30 14:16 -10.42394 -53.32696 36975 ft 455 kts 135°
2026-04-30 14:17 -10.47026 -53.28316 36972 ft 454 kts 135°
2026-04-30 14:17 -10.51653 -53.23940 36971 ft 455 kts 135°
2026-04-30 14:18 -10.56290 -53.19552 36975 ft 455 kts 135°
2026-04-30 14:18 -10.63241 -53.12972 36972 ft 455 kts 135°
2026-04-30 14:19 -10.70197 -53.06384 36973 ft 456 kts 135°
2026-04-30 14:20 -10.74839 -53.01983 36972 ft 457 kts 135°
2026-04-30 14:20 -10.81817 -52.95367 36973 ft 457 kts 135°
2026-04-30 14:21 -10.86443 -52.90977 36971 ft 458 kts 135°
2026-04-30 14:22 -10.93430 -52.84345 36970 ft 458 kts 135°
2026-04-30 14:22 -11.00418 -52.77706 36980 ft 458 kts 135°
2026-04-30 14:23 -11.09592 -52.68983 36972 ft 458 kts 135°
2026-04-30 14:24 -11.16580 -52.62335 36970 ft 458 kts 135°
2026-04-30 14:25 -11.25844 -52.53513 36974 ft 457 kts 135°
2026-04-30 14:26 -11.33154 -52.46545 36960 ft 457 kts 135°
2026-04-30 14:27 -11.40107 -52.39913 36964 ft 456 kts 135°
2026-04-30 14:27 -11.44745 -52.35486 36971 ft 456 kts 135°
2026-04-30 14:28 -11.51655 -52.28888 36974 ft 456 kts 135°
2026-04-30 14:28 -11.56363 -52.24540 36967 ft 456 kts 137°
2026-04-30 14:29 -11.65263 -52.16911 36970 ft 456 kts 138°
2026-04-30 14:31 -11.78126 -52.05744 36963 ft 455 kts 137°
2026-04-30 14:31 -11.85342 -51.99452 36963 ft 455 kts 137°
2026-04-30 14:32 -11.92557 -51.93158 36965 ft 455 kts 137°
2026-04-30 14:33 -11.97364 -51.88963 36970 ft 454 kts 137°
2026-04-30 14:33 -12.04572 -51.82668 36969 ft 454 kts 137°
2026-04-30 14:34 -12.09383 -51.78464 36968 ft 455 kts 137°
2026-04-30 14:34 -12.14156 -51.74292 36972 ft 455 kts 137°
2026-04-30 14:35 -12.21370 -51.67980 36972 ft 456 kts 137°
2026-04-30 14:36 -12.26193 -51.63758 36970 ft 456 kts 137°
2026-04-30 14:36 -12.31021 -51.59529 36969 ft 457 kts 138°
2026-04-30 14:37 -12.35849 -51.55299 36968 ft 457 kts 138°
2026-04-30 14:37 -12.40676 -51.51067 36967 ft 457 kts 137°
2026-04-30 14:38 -12.45508 -51.46828 36961 ft 457 kts 138°
2026-04-30 14:38 -12.49517 -51.43308 36962 ft 457 kts 138°
2026-04-30 14:39 -12.54319 -51.39058 36963 ft 456 kts 136°
2026-04-30 14:39 -12.58957 -51.34644 36959 ft 455 kts 135°
2026-04-30 14:40 -12.65850 -51.27974 36957 ft 454 kts 135°
2026-04-30 14:40 -12.70453 -51.23557 36956 ft 453 kts 135°
2026-04-30 14:41 -12.75058 -51.19154 36961 ft 453 kts 136°
2026-04-30 14:41 -12.79658 -51.14756 36957 ft 452 kts 136°
2026-04-30 14:42 -12.84227 -51.10383 36957 ft 452 kts 136°
2026-04-30 14:42 -12.88849 -51.05959 36958 ft 452 kts 136°
2026-04-30 14:43 -12.93437 -51.01562 36958 ft 451 kts 136°
2026-04-30 14:43 -12.98000 -50.97188 36955 ft 452 kts 136°
2026-04-30 14:44 -13.02589 -50.92786 36953 ft 452 kts 136°
2026-04-30 14:44 -13.07179 -50.88381 36962 ft 452 kts 136°
2026-04-30 14:45 -13.11766 -50.83976 36956 ft 452 kts 136°
2026-04-30 14:45 -13.16356 -50.79566 36959 ft 451 kts 136°
2026-04-30 14:46 -13.20943 -50.75157 36961 ft 451 kts 136°
2026-04-30 14:46 -13.25517 -50.70757 36957 ft 451 kts 136°
2026-04-30 14:47 -13.30057 -50.66388 36962 ft 450 kts 136°
2026-04-30 14:47 -13.34622 -50.61994 36956 ft 450 kts 136°
2026-04-30 14:48 -13.39187 -50.57600 36963 ft 449 kts 136°
2026-04-30 14:48 -13.43749 -50.53204 36961 ft 448 kts 136°
2026-04-30 14:49 -13.48296 -50.48819 36967 ft 448 kts 136°
2026-04-30 14:49 -13.52844 -50.44432 36964 ft 448 kts 136°
2026-04-30 14:50 -13.59662 -50.37848 36975 ft 448 kts 136°
2026-04-30 14:51 -13.66477 -50.31263 36965 ft 448 kts 136°
2026-04-30 14:52 -13.73251 -50.24712 36960 ft 448 kts 136°
2026-04-30 14:52 -13.80054 -50.18127 36966 ft 447 kts 136°
2026-04-30 14:53 -13.86849 -50.11545 36966 ft 447 kts 137°
2026-04-30 14:54 -13.95911 -50.02757 36966 ft 447 kts 137°
2026-04-30 14:55 -14.02669 -49.96198 36968 ft 447 kts 137°
2026-04-30 14:56 -14.11724 -49.87400 36966 ft 447 kts 137°
2026-04-30 14:57 -14.18523 -49.80787 36963 ft 448 kts 136°
2026-04-30 14:58 -14.27588 -49.71961 36969 ft 448 kts 136°
2026-04-30 14:58 -14.34352 -49.65369 36967 ft 448 kts 136°
2026-04-30 15:00 -14.45695 -49.54302 36977 ft 449 kts 136°
2026-04-30 15:01 -14.54775 -49.45430 36981 ft 450 kts 136°
2026-04-30 15:01 -14.61568 -49.38786 36991 ft 450 kts 136°
2026-04-30 15:02 -14.66117 -49.34334 36991 ft 451 kts 136°
2026-04-30 15:03 -14.77508 -49.23173 36994 ft 452 kts 136°
2026-04-30 15:04 -14.88903 -49.11990 36995 ft 451 kts 136°
2026-04-30 15:06 -15.00282 -49.00805 37001 ft 451 kts 136°
2026-04-30 15:07 -15.09368 -48.91849 37001 ft 451 kts 136°
2026-04-30 15:08 -15.18319 -48.82837 37004 ft 450 kts 135°
2026-04-30 15:09 -15.29532 -48.71534 37015 ft 449 kts 135°
2026-04-30 15:10 -15.38496 -48.62495 37015 ft 449 kts 135°
2026-04-30 15:11 -15.51901 -48.48953 37025 ft 450 kts 135°
2026-04-30 15:13 -15.63106 -48.37614 37031 ft 450 kts 135°
2026-04-30 15:14 -15.78800 -48.21701 37073 ft 451 kts 135°
2026-04-30 15:17 -15.98963 -48.01203 37153 ft 450 kts 136°
2026-04-30 15:19 -16.16834 -47.82984 37070 ft 450 kts 136°